Showing default

HYPERVIEW-1G, 61772

Orbit data source: Space-Track

HYPERVIEW-1G, 61772 is a payload satellite owned by SNIU (CIS) in SSO that was launched on Mon, 04 Nov 2024 UTC via a SOYUZ-2-1B launch vehicle from the Vostochny Cosmodrome (VOSTO). Payload-class satellites include a variety of spacecraft equipped with specific instruments for various scientific and technological missions. These include communications satellites like Starlink; space stations such as the ISS; scientific satellites like the Hubble; Earth observation satellites from companies like Planet Labs, Umbra, and HawkEye 360; GPS; miniature CubeSats for education and research; and military/defense satellites.

Loading next visibility...
Identifier
61772, 2024-199AP
Orbit
SSO
Country
Flag of CISCIS
Related business
Manufacturer
Sputniks
Mission
Operational Amateur Imaging
Bus & Motor
CUBESAT 6U, Unknown motor
Mass
10 kg wet, 10 kg dry
Launch date (UTC)
2024-11-04 (1 year ago)
Launch vehicle
SOYUZ-2-1B
Launch site
Vostochny Cosmodrome (VOSTO)
Object type
Payload
Rocket body
Debris
Shape & HBR
Box, 0.1 m
Radar Cross Section
0.080 m², Medium (>0.1 m² and < 1m²)

Expand to show TLE details & history
Last TLE update: 10 hours ago

TLE from 10 hours ago
0 HYPERVIEW-1G
1 61772U 24199AP  26061.81755778  .00072586  00000-0  10030-2 0  9995
2 61772  97.3105 297.7157 0007205 317.0332  43.0360 15.56885987118032
Epoch: 2026-03-02T19:37Z
TLE epoch observation values (Epoch: 2026-03-02T19:37:16.992Z)
Latitude
0.00001°
Longitude
-157.21063°
Altitude
396.252 km
Speed
7.675 km/s
True Right ascension
19h 50m 51s
True Declination
0° 00' 00"
Sunlit
Object was in daylight at epoch
Visualization orbit readout
Latitude
Unknown
Longitude
Unknown
Altitude
Unknown
Speed
Unknown
Apparent Right ascension
Unknown
Apparent Declination
Unknown
Sunlit
N/A
Visualization observer readout
Local Sidereal Time
08:58:49
Azimuth
Unknown
Elevation
Unknown
Doppler factor
Unknown
Orbital elements
Apogee altitude
398.468 km
Perigee altitude
388.71 km
Semi-major axis
6,771.726 km
Eccentricity
0.00072
Inclination
97.3105°
RAAN
297.7157°
Arg. of periapsis
317.0332°
True anomaly
43.09238°
Mean anomaly
43.036°
Eccentric anomaly
43.06419°
Mean motion
3.89488 °/min
Orbital period
92.43 mins
BSTAR
0.001003
Loading maneuver chart data...
Computing Atmospheric mass density...
Loading historical data...
Loading historical data...
Loading historical data...
Loading historical data...
Loading historical data...
Loading historical data...
Loading historical data...

Documentation

Showing up to 5 results
|